Terminal Aerodrome Forecast
Issued by NWS Sioux Falls, SD

Home | Current Version | Previous Version | Graphics & Text | Print | Product List | Glossary On
Versions: 1 2 3 4 5 6 7 8 9 10 11 12
000
FTUS43 KFSD 292300
TAFHON
TAF
KHON 292330Z 3000/3024 01005KT P6SM SKC
     FM300200 VRB03KT P6SM SKC
     FM301600 04005KT P6SM SCT100=

USA.gov is the U.S. government's official web portal to all federal, state and local government web resources and services.